Weather History for South St. Paul, MN

Change the Weather History Date:

Tuesday, December 25, 2012

  Actual Average (KMSP) Record (KMSP)
Temperature  
Mean Temperature 8 °F 17 °F  
Max Temperature 13 °F 25 °F 51 °F (1922)
Min Temperature 2 °F 10 °F -39 °F (1879)
Degree Days  
Heating Degree Days 58 48  
Month to date heating degree days 1114  
Since 1 July heating degree days 2733  
Cooling Degree Days 0 0  
Month to date cooling degree days 0  
Year to date cooling degree days 753  
Moisture  
Dew Point 0 °F    
Average Humidity 71    
Maximum Humidity 78    
Minimum Humidity 60    
Precipitation  
Precipitation 0.00 in 0.04 in 1.35 in (1982)
Month to date precipitation 0.96  
Year to date precipitation 30.41  
Snow  
Snow 0.00 in 0.40 in 9.60 in (1945)
Month to date snowfall 9.8  
Since 1 July snowfall 19.7  
Snow Depth -    
Sea Level Pressure  
Sea Level Pressure 30.42 in    
Wind  
Wind Speed 6 mph (NNW)    
Max Wind Speed 9 mph    
Max Gust Speed -    
Visibility 10 miles    
Events      
T = Trace of Precipitation, MM = Missing Value Source: NWS Daily Summary

Daily Weather History Graph

Daily Weather History Graph

Search for Another Location

Airport:

Trip Planner

Search our weather history database for the weather conditions in past years. The results will help you decide how hot, cold, wet, or windy it might be!

Date:

Astronomy

Dec. 25, 2012 Rise Set
Actual Time 7:48 AM CST 4:36 PM CST
Civil Twilight 7:14 AM CST 5:10 PM CST
Nautical Twilight 6:37 AM CST 5:47 PM CST
Astronomical Twilight 6:02 AM CST 6:23 PM CST
Moon 2:46 PM CST (12/25) 5:19 AM CST (12/25)
Length of Visible Light 9h 55m
Length of Day
8h 47m
Waxing Gibbous, 94% of the Moon is Illuminated
Dec 25
Waxing Gibbous
Dec 28
Full
Jan 4
Last Quarter
Jan 11
New
Jan 18
First Quarter

Hourly Weather History & Observations

Time (CST) Temp. Windchill Dew Point Humidity Pressure Visibility Wind Dir Wind Speed Gust Speed Precip Events Conditions
12:12 AM 7.7 °F -4.8 °F 0.9 °F 74% 30.28 in 10.0 mi North 8.1 mph - N/A   Clear
12:32 AM 7.3 °F -2.8 °F 0.9 °F 75% 30.29 in 10.0 mi North 5.8 mph - N/A   Clear
12:52 AM 6.8 °F -4.8 °F 0.3 °F 75% 30.30 in 10.0 mi North 6.9 mph - N/A   Clear
1:12 AM 6.8 °F -4.8 °F 0.3 °F 75% 30.31 in 10.0 mi NNW 6.9 mph - N/A   Clear
1:32 AM 6.4 °F -5.2 °F 0.1 °F 75% 30.31 in 10.0 mi North 6.9 mph - N/A   Clear
1:52 AM 6.3 °F -5.4 °F -0.0 °F 75% 30.32 in 10.0 mi NNW 6.9 mph - N/A   Clear
2:12 AM 5.9 °F -4.5 °F -0.4 °F 75% 30.33 in 10.0 mi NNW 5.8 mph - N/A   Clear
2:32 AM 5.4 °F -5.2 °F -0.8 °F 76% 30.35 in 10.0 mi NNW 5.8 mph - N/A   Clear
2:52 AM 5.4 °F -3.6 °F -0.8 °F 76% 30.36 in 10.0 mi NNW 4.6 mph - N/A   Clear
3:12 AM 5.5 °F -3.4 °F -0.6 °F 76% 30.36 in 10.0 mi NNW 4.6 mph - N/A   Clear
3:32 AM 4.6 °F -6.0 °F -1.3 °F 76% 30.37 in 10.0 mi NNW 5.8 mph - N/A   Clear
3:52 AM 5.0 °F -2.1 °F -0.8 °F 77% 30.37 in 10.0 mi NNW 3.5 mph - N/A   Clear
4:12 AM 4.3 °F -4.9 °F -1.3 °F 78% 30.37 in 10.0 mi NW 4.6 mph - N/A   Clear
4:32 AM 4.3 °F -4.9 °F -1.1 °F 78% 30.37 in 10.0 mi NNW 4.6 mph - N/A   Clear
4:52 AM 4.1 °F -5.1 °F -1.5 °F 78% 30.38 in 10.0 mi NNW 4.6 mph - N/A   Clear
5:12 AM 4.1 °F -6.7 °F -1.3 °F 78% 30.38 in 10.0 mi NNW 5.8 mph - N/A   Clear
5:32 AM 4.1 °F -8.0 °F -1.3 °F 78% 30.38 in 10.0 mi North 6.9 mph - N/A   Clear
5:52 AM 4.1 °F -9.2 °F -1.7 °F 77% 30.39 in 10.0 mi North 8.1 mph - N/A   Clear
6:12 AM 4.1 °F -6.7 °F -2.0 °F 76% 30.40 in 10.0 mi North 5.8 mph - N/A   Clear
6:32 AM 3.7 °F -7.1 °F -2.2 °F 76% 30.40 in 10.0 mi North 5.8 mph - N/A   Clear
6:52 AM 3.6 °F -8.7 °F -2.4 °F 76% 30.41 in 10.0 mi North 6.9 mph - N/A   Clear
7:12 AM 3.2 °F -11.3 °F -2.7 °F 76% 30.41 in 10.0 mi North 9.2 mph - N/A   Clear
7:32 AM 3.0 °F -6.4 °F -2.7 °F 77% 30.42 in 10.0 mi North 4.6 mph - N/A   Clear
7:52 AM 2.8 °F -10.7 °F -3.1 °F 76% 30.43 in 10.0 mi North 8.1 mph - N/A   Clear
8:12 AM 2.7 °F -10.9 °F -3.3 °F 76% 30.43 in 10.0 mi North 8.1 mph - N/A   Clear
8:32 AM 2.8 °F -9.5 °F -3.3 °F 76% 30.44 in 10.0 mi North 6.9 mph - N/A   Clear
8:52 AM 3.0 °F -10.5 °F -3.5 °F 74% 30.45 in 10.0 mi North 8.1 mph - N/A   Clear
9:12 AM 3.2 °F -9.1 °F -3.5 °F 74% 30.45 in 10.0 mi North 6.9 mph - N/A   Clear
9:32 AM 3.4 °F -8.9 °F -3.3 °F 74% 30.46 in 10.0 mi North 6.9 mph - N/A   Clear
9:52 AM 4.1 °F -8.0 °F -3.1 °F 72% 30.47 in 10.0 mi North 6.9 mph - N/A   Clear
10:12 AM 4.6 °F -2.5 °F -2.6 °F 72% 30.48 in 10.0 mi North 3.5 mph - N/A   Clear
10:32 AM 5.5 °F -1.5 °F -2.2 °F 70% 30.48 in 10.0 mi WNW 3.5 mph - N/A   Clear
10:52 AM 6.4 °F -2.4 °F -1.5 °F 70% 30.47 in 10.0 mi NW 4.6 mph - N/A   Clear
11:12 AM 7.2 °F 0.3 °F -1.1 °F 69% 30.46 in 10.0 mi NNE 3.5 mph - N/A   Clear
11:32 AM 7.9 °F -2.2 °F -0.4 °F 69% 30.46 in 10.0 mi North 5.8 mph - N/A   Clear
11:52 AM 8.6 °F 2.0 °F 0.1 °F 68% 30.46 in 10.0 mi NNE 3.5 mph - N/A   Clear
12:12 PM 9.5 °F 3.0 °F 0.7 °F 67% 30.45 in 10.0 mi North 3.5 mph - N/A   Clear
12:32 PM 10.9 °F - 1.2 °F 65% 30.45 in 10.0 mi Calm Calm - N/A   Clear
12:52 PM 12.2 °F - 1.6 °F 63% 30.45 in 10.0 mi Calm Calm - N/A   Clear
1:12 PM 12.2 °F - 1.8 °F 63% 30.45 in 10.0 mi Calm Calm - N/A   Clear
1:32 PM 13.1 °F 7.1 °F 2.8 °F 64% 30.45 in 10.0 mi NW 3.5 mph - N/A   Clear
2:12 PM 13.8 °F 8.0 °F 2.3 °F 60% 30.44 in 10.0 mi NW 3.5 mph - N/A   Clear
2:32 PM 13.8 °F 3.7 °F 2.3 °F 60% 30.43 in 10.0 mi NNW 6.9 mph - N/A   Clear
2:52 PM 13.8 °F 2.7 °F 2.8 °F 62% 30.42 in 10.0 mi NNW 8.1 mph - N/A   Clear
3:12 PM 13.8 °F 4.9 °F 3.0 °F 62% 30.42 in 10.0 mi NNW 5.8 mph - N/A   Clear
3:32 PM 13.5 °F 4.4 °F 2.7 °F 62% 30.42 in 10.0 mi NW 5.8 mph - N/A   Clear
3:52 PM 13.1 °F 2.8 °F 2.3 °F 62% 30.41 in 10.0 mi NNW 6.9 mph - N/A   Clear
4:12 PM 12.9 °F 2.6 °F 2.3 °F 63% 30.42 in 10.0 mi NW 6.9 mph - N/A   Clear
4:32 PM 12.2 °F 2.9 °F 1.9 °F 64% 30.42 in 10.0 mi NNW 5.8 mph - N/A   Clear
4:52 PM 11.7 °F 2.3 °F 1.4 °F 63% 30.43 in 10.0 mi NNW 5.8 mph - N/A   Clear
5:12 PM 11.3 °F 3.3 °F 1.2 °F 64% 30.44 in 10.0 mi NW 4.6 mph - N/A   Clear
5:32 PM 10.4 °F 0.8 °F 0.9 °F 65% 30.45 in 10.0 mi NW 5.8 mph - N/A   Clear
5:52 PM 10.4 °F 0.8 °F 1.2 °F 66% 30.45 in 10.0 mi NNW 5.8 mph - N/A   Clear
6:32 PM 9.9 °F - 1.0 °F 68% 30.48 in 10.0 mi Calm Calm - N/A   Clear
6:52 PM 9.5 °F 3.0 °F 0.7 °F 67% 30.47 in 10.0 mi NW 3.5 mph - N/A   Clear
7:12 PM 9.1 °F 0.8 °F 0.5 °F 68% 30.46 in 10.0 mi NW 4.6 mph - N/A   Clear
7:32 PM 9.3 °F - 0.9 °F 69% 30.47 in 10.0 mi Calm Calm - N/A   Clear
7:52 PM 8.6 °F - 0.5 °F 70% 30.47 in 10.0 mi Calm Calm - N/A   Clear
8:12 PM 8.2 °F 1.6 °F 0.5 °F 71% 30.46 in 10.0 mi NW 3.5 mph - N/A   Clear
8:32 PM 7.9 °F 1.2 °F 0.3 °F 71% 30.45 in 10.0 mi NW 3.5 mph - N/A   Clear
8:52 PM 8.4 °F 1.8 °F 0.9 °F 71% 30.44 in 10.0 mi NNW 3.5 mph - N/A   Clear
9:12 PM 8.2 °F -0.3 °F 0.1 °F 70% 30.44 in 10.0 mi NW 4.6 mph - N/A   Clear
9:32 PM 8.4 °F -0.1 °F 0.5 °F 70% 30.43 in 10.0 mi North 4.6 mph - N/A   Clear
9:52 PM 8.2 °F -0.3 °F 0.5 °F 71% 30.42 in 10.0 mi North 4.6 mph - N/A   Clear
10:12 PM 8.1 °F 1.4 °F -0.2 °F 69% 30.42 in 10.0 mi North 3.5 mph - N/A   Clear
10:32 PM 7.5 °F -1.1 °F -0.4 °F 70% 30.42 in 10.0 mi NNW 4.6 mph - N/A   Clear
10:52 PM 7.2 °F 0.3 °F -0.9 °F 69% 30.42 in 10.0 mi NW 3.5 mph - N/A   Clear
11:12 PM 6.8 °F - -0.9 °F 71% 30.42 in 10.0 mi Calm Calm - N/A   Clear
11:32 PM 6.8 °F -2.0 °F -0.9 °F 71% 30.41 in 10.0 mi NNW 4.6 mph - N/A   Clear
11:52 PM 6.4 °F -0.5 °F -1.1 °F 71% 30.41 in 10.0 mi North 3.5 mph - N/A   Clear